Weather in Glukhonikolayevka

Russia / Omsk Oblast     55°17′12″N   75°01′43″E
temp.,
°C
wind,
m/s
gust,
m/s
humid.,
%
clouds,
%
prec.,
mm/h
press.,
hPa
HPBL,
m
12 april, mon
mon1200:00−1sw4699100 0.0 1039192
03:00−1wsw4897100 0.0 1037230
06:000sw489579 0.0 1036231
09:000sw4109340 0.0 1035239
12:00+2sw51010083 0.0 1033235
15:00+4wsw51099100 0.0 1032248
18:00+4w4994100 0.0 1032204
21:00+3wnw31098100 0.4 1032211
13 april, tue
tue1300:00+2nw3799100 0.4 1033156
03:00+2nnw4119620 0.0 1034223
06:000nnw38910 0.0 1036132
09:00+3nw47850 0.0 1037240
12:00+6nw57735 0.0 1038734
15:00+7wnw576045 0.0 10371030
18:00+7wnw58725 0.0 1037792
21:00+4w38840 0.0 1037123
14 april, wed
wed1400:00+3w358424 0.0 103777
03:00+2w358419 0.0 103686
06:00+2wsw4784100 0.0 1035104
09:00+5wsw51180100 0.0 1034340
12:00+8wsw71271100 0.0 1032640
15:00+11wsw71262100 0.0 1029899
18:00+11w7126286 0.0 1027702
21:00+8w412795 0.0 1027222
15 april, thu
thu1500:00+6w48874 0.0 1026129
03:00+6w34920 0.0 102545
06:00+6w33935 0.0 102535
09:00+9wsw46865 0.0 1024206
12:00+14wsw56725 0.0 1022656
15:00+17w68545 0.2 10201818
18:00+16w58575 0.2 1018853
21:00+12w34765 0.0 101863
16 april, fri
fri1600:00+10w478214 0.0 1017112
03:00+9w47835 0.0 1016111
06:00+7w36865 0.0 101681
09:00+11w36749 0.0 1015212
12:00+16w355723 0.0 1014798
15:00+18wsw56495 0.0 10141565
18:00+17sw45524 0.0 10121154
21:00+13ssw3468100 0.0 101146